Regional Weather Roundup
Issued by NWS Binghamton, NY

Home | Current Version | Previous Version | Text Only | Print | Product List | Glossary On
Versions: 1 2 3 4 5 6 7 8 9 10 11 12 13 14 15 16 17 18 19 20 21 22 23 24 25 26 27
000
ASUS41 KBGM 290710
RWRBGM

REGIONAL WEATHER ROUNDUP
NATIONAL WEATHER SERVICE BINGHAMTON NY
300 AM EDT SUN MAY 29 2016

Note: "fair" indicates few or no clouds below 12,000 feet with no
significant weather and/or obstructions to visibility.

* = Station(s) that does not report precipitation, such as rain,
snow, etc, also no thunder or fog.

NYZ009-015>018-022>025-036-037-044>046-055>057-062-290800
...Central New York...

CITY           SKY/WX    TMP DP  RH WIND       PRES   REMARKS
Binghamton     PTCLDY    72  64  76 S5        30.14S
Cortland       FAIR      68  64  88 CALM      30.12F
Dansville      MOCLDY    70  65  84 SE8       30.10R
Elmira         CLOUDY    67  64  90 W3        30.11S FOG
Ithaca         CLOUDY    68  65  90 SE3       30.12S
Hamilton       PTCLDY    66  64  94 CALM      30.12F
Hornell        CLEAR     64  64 100 CALM      30.15F
Monticello     CLEAR     64  64 100 CALM      30.17F
Penn Yan       CLOUDY    69  64  84 SW3       30.10S
Rome           PTCLDY    67  62  84 CALM      30.09F
Sidney         CLEAR     66  66 100 CALM      30.13S
Syracuse       CLOUDY    71  65  81 CALM      30.06S
$$

PAZ038>040-043-044-047-048-072-290800
...Northeast Pennsylvania...

CITY           SKY/WX    TMP DP  RH WIND       PRES   REMARKS
Hazleton       PTCLDY    66  63  88 CALM      30.20S
Scranton       CLOUDY    72  66  81 CALM      30.13F
$$
&&
KEY
WCI = Wind Chill Index
VSB = Visibility
HX  = Heat Index
$$




USA.gov is the U.S. government's official web portal to all federal, state and local government web resources and services.